TimeEDT,TemperatureF,Dew PointF,Humidity,Sea Level PressureIn,VisibilityMPH,Wind Direction,Wind SpeedMPH,Gust SpeedMPH,PrecipitationIn,Events,Conditions,WindDirDegrees,DateUTC
12:54 AM,30.9,18.0,59,29.75,10.0,West,15.0,20.7,N/A,,Clear,280,2013-03-23 04:54:00
1:54 AM,30.9,18.0,59,29.75,10.0,WNW,13.8,-,N/A,,Clear,290,2013-03-23 05:54:00
2:54 AM,30.0,17.1,59,29.74,10.0,WNW,11.5,-,N/A,,Clear,290,2013-03-23 06:54:00
3:54 AM,30.0,18.0,61,29.73,10.0,West,13.8,20.7,N/A,,Clear,280,2013-03-23 07:54:00
4:54 AM,30.0,19.0,64,29.72,10.0,West,19.6,26.5,N/A,,Clear,260,2013-03-23 08:54:00
5:54 AM,30.9,19.9,64,29.72,10.0,West,13.8,21.9,N/A,,Clear,260,2013-03-23 09:54:00
6:54 AM,30.9,19.9,64,29.72,10.0,West,15.0,23.0,N/A,,Clear,270,2013-03-23 10:54:00
7:54 AM,33.1,21.0,61,29.70,10.0,West,16.1,21.9,N/A,,Clear,260,2013-03-23 11:54:00
8:54 AM,35.1,21.0,57,29.70,10.0,West,17.3,29.9,N/A,,Partly Cloudy,270,2013-03-23 12:54:00
9:54 AM,37.0,19.0,48,29.70,10.0,West,18.4,26.5,N/A,,Scattered Clouds,280,2013-03-23 13:54:00
10:54 AM,37.9,18.0,45,29.69,10.0,WNW,18.4,28.8,N/A,,Scattered Clouds,290,2013-03-23 14:54:00
11:54 AM,39.0,18.0,43,29.67,10.0,West,19.6,27.6,N/A,,Mostly Cloudy,280,2013-03-23 15:54:00
12:54 PM,39.9,18.0,41,29.66,10.0,West,18.4,24.2,N/A,,Mostly Cloudy,280,2013-03-23 16:54:00
1:54 PM,41.0,17.1,38,29.66,10.0,WNW,17.3,31.1,N/A,,Mostly Cloudy,300,2013-03-23 17:54:00
2:54 PM,42.1,16.0,35,29.65,10.0,WNW,18.4,28.8,N/A,,Mostly Cloudy,300,2013-03-23 18:54:00
3:54 PM,43.0,16.0,34,29.63,10.0,West,18.4,31.1,N/A,,Mostly Cloudy,280,2013-03-23 19:54:00
4:54 PM,44.1,16.0,32,29.64,10.0,NW,17.3,26.5,N/A,,Scattered Clouds,310,2013-03-23 20:54:00
5:54 PM,43.0,15.1,32,29.68,10.0,NW,25.3,32.2,N/A,,Scattered Clouds,320,2013-03-23 21:54:00
6:54 PM,41.0,15.1,35,29.70,10.0,NW,20.7,29.9,N/A,,Partly Cloudy,320,2013-03-23 22:54:00
7:54 PM,39.9,16.0,38,29.74,10.0,NNW,17.3,27.6,N/A,,Partly Cloudy,330,2013-03-23 23:54:00
8:54 PM,39.0,17.1,41,29.78,10.0,NW,11.5,20.7,N/A,,Scattered Clouds,310,2013-03-24 00:54:00
9:54 PM,37.9,17.1,43,29.78,10.0,WNW,10.4,-,N/A,,Partly Cloudy,290,2013-03-24 01:54:00
10:54 PM,37.0,18.0,46,29.78,10.0,West,15.0,21.9,N/A,,Clear,280,2013-03-24 02:54:00
11:54 PM,36.0,18.0,48,29.78,10.0,West,12.7,-,N/A,,Partly Cloudy,280,2013-03-24 03:54:00